SCP
0 0 0 0 0 0 0 0 0 0 0 0 0 0 0 0 0 0 0 0 0 0
0 0 0 0 0 0 0 0 0 0 0 0 0 0 0 0 0 0 0 0 0 0
0 0 0 0 0 0 0 0 0 0 0 0 0 0 0 0 0 0 0 0 0 0
0 0 0 0 0 0 0 0 0 0 0 0 0 0 0 0 0 0 0 0 0 0
0 0 0 0 0 0 0 0 0 0 0 0 0 0 0 0 0 0 0 0 0 0
0 0 0 0 0 0 0 0 0 0 0 0 0 0 0 0 0 0 0 0 0 0
0 0 0 0 0 0 0 0 0 0 0 0 0 0 0 0 0 0 0 1 0 0
0 0 0 0 0 0 0 0 0 0 0 0 0 0 0 0 0 0 0 0 0 1
0 0 0 0 0 0 0 0 0 0 0 0 0 0 0 0 0 0 0 0 0 0
0 0 0 0 0 0 0 0 0 0 0 0 0 0 0 0 0 0 0 0 0 0
0 0 0 0 0 0 0 0 0 0 0 0 0 0 0 0 0 0 0 0 0 0
0 0 0 0 0 0 0 0 0 0 0 0 0 0 0 0 0 0 0 0 0 0
0 0 0 0 0 0 0 0 0 0 0 0 0 0 0 0 0 0 0 0 0 0
0 0 0 0 0 0 0 0 0 0 0 0 0 0 0 0 0 0 0 0 0 0
Wind_Speed_500mb
43 46 47 50 54 56 56 56 55 54 54 55 56 53 51 51 47 42 38 39 47 45
46 49 53 60 63 67 68 70 68 67 67 65 64 61 60 59 59 54 49 48 42 44
40 44 48 52 57 63 66 68 69 71 75 74 72 67 64 66 67 66 63 59 57 54
39 44 50 55 57 60 64 63 65 69 73 77 81 81 79 77 73 71 72 68 68 66
57 62 66 69 70 72 76 76 76 79 81 83 85 87 90 90 88 83 80 77 75 77
72 76 80 83 84 86 88 88 88 89 91 92 89 89 89 89 86 92 94 91 84 83
78 81 82 83 83 82 80 82 80 80 81 79 75 72 71 73 81 86 91 101 97 91
71 70 68 67 66 68 69 67 67 66 63 60 60 61 64 67 74 84 88 88 88 95
58 57 58 57 56 54 56 55 53 56 54 56 56 56 58 62 66 75 82 83 76 77
52 50 50 51 50 50 53 53 53 52 53 58 59 62 66 66 71 70 76 82 73 69
48 52 54 50 49 51 51 53 52 54 57 63 63 59 61 53 53 60 58 62 63 64
53 55 55 53 61 64 64 62 61 57 57 57 56 56 59 52 51 54 47 52 54 55
56 55 56 57 62 62 65 64 61 58 57 51 57 50 49 46 47 48 41 46 41 48
52 53 54 57 55 57 56 58 56 55 48 49 44 44 39 39 41 44 36 32 21 15
Wind_Direction_500mb
243 250 252 251 253 254 256 257 258 261 269 272 267 272 277 279 282 281 280 280 276 277
260 263 262 260 260 261 261 262 263 261 259 258 260 265 272 273 275 275 273 276 277 277
272 272 269 269 268 269 269 268 267 262 259 256 255 258 261 267 271 270 271 273 271 273
282 282 282 282 282 279 276 274 270 267 262 259 257 258 258 258 258 261 267 267 269 271
290 287 285 281 277 274 273 271 272 271 268 264 262 259 257 257 257 258 259 262 263 268
296 294 292 291 289 286 283 280 275 272 268 266 265 264 262 260 258 257 258 259 260 263
300 299 297 295 294 292 289 285 282 277 273 270 268 265 263 261 260 259 259 259 259 261
302 300 299 299 299 297 295 292 288 284 279 276 272 270 269 266 263 263 261 261 261 259
302 301 300 299 299 297 296 294 291 288 284 282 279 275 271 271 271 264 260 259 258 257
302 301 300 299 298 297 296 295 293 286 285 282 279 279 287 281 277 270 265 259 260 261
305 303 305 303 299 299 299 296 294 290 282 281 282 277 284 283 281 271 272 259 259 267
312 310 308 302 308 311 309 303 301 297 293 289 286 283 274 276 277 278 279 261 261 275
321 320 318 315 314 315 314 310 308 306 302 290 289 286 281 276 274 278 275 253 266 282
328 324 322 322 320 318 315 316 314 313 305 302 298 289 284 280 269 266 266 255 234 78
Wind_Speed_850mb
43 46 47 50 54 56 56 56 55 54 54 55 56 53 51 51 47 42 38 39 47 45
46 49 53 60 63 67 68 70 68 67 67 65 64 61 60 59 59 54 49 48 42 44
40 44 48 52 57 63 66 68 69 71 75 74 72 67 64 66 67 66 63 59 57 54
39 44 50 55 57 60 64 63 65 69 73 77 81 81 79 77 73 71 72 68 68 66
57 62 66 69 70 72 76 76 76 79 81 83 85 87 90 90 88 83 80 77 75 77
72 76 80 83 84 86 88 88 88 89 91 92 89 89 89 89 86 92 94 91 84 83
78 81 82 83 83 82 80 82 80 80 81 79 75 72 71 73 81 86 91 101 97 91
71 70 68 67 66 68 69 67 67 66 63 60 60 61 64 67 74 84 88 88 88 95
58 57 58 57 56 54 56 55 53 56 54 56 56 56 58 62 66 75 82 83 76 77
52 50 50 51 50 50 53 53 53 52 53 58 59 62 66 66 71 70 76 82 73 69
48 52 54 50 49 51 51 53 52 54 57 63 63 59 61 53 53 60 58 62 63 64
53 55 55 53 61 64 64 62 61 57 57 57 56 56 59 52 51 54 47 52 54 55
56 55 56 57 62 62 65 64 61 58 57 51 57 50 49 46 47 48 41 46 41 48
52 53 54 57 55 57 56 58 56 55 48 49 44 44 39 39 41 44 36 32 21 15
Wind_Direction_850mb
243 250 252 251 253 254 256 257 258 261 269 272 267 272 277 279 282 281 280 280 276 277
260 263 262 260 260 261 261 262 263 261 259 258 260 265 272 273 275 275 273 276 277 277
272 272 269 269 268 269 269 268 267 262 259 256 255 258 261 267 271 270 271 273 271 273
282 282 282 282 282 279 276 274 270 267 262 259 257 258 258 258 258 261 267 267 269 271
290 287 285 281 277 274 273 271 272 271 268 264 262 259 257 257 257 258 259 262 263 268
296 294 292 291 289 286 283 280 275 272 268 266 265 264 262 260 258 257 258 259 260 263
300 299 297 295 294 292 289 285 282 277 273 270 268 265 263 261 260 259 259 259 259 261
302 300 299 299 299 297 295 292 288 284 279 276 272 270 269 266 263 263 261 261 261 259
302 301 300 299 299 297 296 294 291 288 284 282 279 275 271 271 271 264 260 259 258 257
302 301 300 299 298 297 296 295 293 286 285 282 279 279 287 281 277 270 265 259 260 261
305 303 305 303 299 299 299 296 294 290 282 281 282 277 284 283 281 271 272 259 259 267
312 310 308 302 308 311 309 303 301 297 293 289 286 283 274 276 277 278 279 261 261 275
321 320 318 315 314 315 314 310 308 306 302 290 289 286 281 276 274 278 275 253 266 282
328 324 322 322 320 318 315 316 314 313 305 302 298 289 284 280 269 266 266 255 234 78